Temperature
10 9 9 9 8 8 8 7 7 6 6 7 6 6 6 5 5 5 4 4 4 4 3 3 3 2 2 2 1 1 0 -0 -0 -1 -1 -1 -1 -1
10 9 9 9 8 8 8 7 7 6 6 6 6 5 5 5 4 4 4 4 3 3 3 2 2 2 1 1 0 0 -0 -1 -1 -1 -1 -2 -2 -1
9 9 9 9 8 8 7 7 6 6 5 6 5 5 5 4 4 3 3 3 3 2 2 1 1 1 0 0 -0 -1 -1 -1 -2 -2 -2 -2 -2 -2
9 9 9 8 8 8 7 7 6 6 5 5 5 5 4 4 3 3 2 2 2 1 1 1 0 -0 -0 -1 -1 -1 -2 -2 -2 -3 -3 -3 -3 -3
9 9 8 8 8 7 7 6 6 5 5 4 4 4 4 3 3 2 2 1 1 1 0 -0 -1 -1 -1 -2 -2 -2 -2 -3 -3 -4 -4 -4 -4 -4
9 8 8 8 7 7 6 6 6 5 4 4 4 3 3 3 2 2 1 1 0 0 -0 -1 -1 -2 -2 -2 -3 -3 -3 -4 -4 -4 -4 -4 -4 -4
8 8 8 7 7 7 6 6 5 4 4 3 3 3 2 2 1 1 0 -0 -0 -1 -1 -1 -2 -2 -3 -3 -3 -3 -4 -4 -4 -5 -5 -5 -5 -5
8 8 7 7 7 6 6 5 4 4 3 3 3 2 2 1 1 -0 -1 -1 -2 -2 -2 -2 -3 -3 -3 -4 -4 -4 -5 -5 -5 -5 -5 -5 -5 -5
8 7 7 7 6 6 5 5 4 4 3 3 2 2 1 0 -0 -1 -1 -2 -2 -3 -3 -3 -3 -3 -4 -4 -5 -5 -5 -5 -6 -6 -6 -6 -6 -6
7 7 7 6 6 5 5 4 4 3 3 2 2 1 0 -0 -1 -2 -2 -3 -3 -3 -4 -4 -4 -4 -4 -4 -5 -5 -5 -6 -6 -6 -6 -6 -6 -6
6 6 6 6 5 5 4 3 3 3 2 2 1 0 -0 -1 -2 -2 -3 -3 -4 -4 -5 -5 -5 -5 -4 -4 -5 -5 -6 -6 -6 -6 -6 -6 -6 -6
6 5 5 5 5 4 3 3 2 2 1 1 0 -0 -1 -2 -3 -3 -4 -4 -5 -5 -6 -6 -6 -7 -6 -5 -5 -6 -6 -6 -6 -6 -6 -6 -7 -7
5 5 5 4 4 3 3 2 2 1 1 0 -1 -1 -2 -3 -3 -4 -4 -5 -6 -6 -6 -7 -7 -7 -8 -7 -6 -6 -6 -6 -6 -6 -6 -7 -7 -7
5 4 4 4 3 2 2 1 1 0 -0 -1 -1 -2 -3 -3 -4 -4 -5 -5 -6 -6 -7 -7 -8 -8 -8 -8 -8 -7 -6 -7 -7 -7 -7 -7 -7 -7
4 4 3 3 2 2 1 1 0 -0 -1 -2 -2 -3 -3 -4 -4 -5 -5 -6 -6 -7 -7 -8 -8 -8 -8 -9 -8 -8 -7 -7 -7 -7 -7 -7 -7 -7
3 3 2 2 1 1 0 -0 -1 -1 -2 -2 -3 -4 -4 -5 -5 -6 -6 -6 -6 -7 -7 -8 -8 -8 -8 -8 -8 -8 -8 -8 -7 -7 -7 -7 -7 -7
2 2 1 1 1 0 -0 -1 -2 -2 -3 -3 -4 -4 -5 -5 -6 -6 -7 -7 -7 -8 -8 -8 -8 -8 -8 -8 -8 -8 -8 -8 -8 -8 -8 -7 -7 -7
2 1 1 0 -0 -1 -1 -2 -2 -3 -3 -4 -5 -5 -5 -6 -6 -7 -7 -8 -8 -8 -8 -8 -9 -8 -8 -8 -8 -8 -8 -8 -8 -8 -8 -8 -7 -6
1 0 -0 -0 -1 -1 -2 -2 -3 -3 -4 -5 -5 -5 -6 -6 -7 -7 -8 -8 -8 -8 -9 -9 -9 -9 -9 -9 -8 -8 -9 -8 -8 -8 -8 -8 -8 -7
-0 -0 -1 -1 -2 -2 -3 -3 -3 -4 -5 -5 -6 -6 -7 -7 -7 -8 -8 -9 -9 -9 -9 -9 -9 -10 -10 -10 -9 -8 -8 -9 -9 -8 -8 -8 -7 -7
-1 -1 -2 -2 -2 -3 -3 -4 -4 -5 -5 -6 -6 -7 -7 -7 -8 -8 -8 -9 -9 -9 -9 -9 -9 -9 -10 -10 -9 -8 -8 -8 -9 -9 -9 -8 -8 -7
-1 -2 -2 -3 -3 -3 -4 -4 -5 -5 -6 -6 -7 -7 -7 -8 -8 -8 -9 -9 -9 -9 -9 -9 -9 -9 -9 -9 -9 -9 -8 -8 -8 -8 -8 -9 -9 -9
-2 -3 -3 -3 -4 -4 -4 -5 -5 -6 -6 -7 -7 -7 -8 -8 -8 -9 -9 -9 -10 -10 -10 -9 -9 -9 -9 -9 -9 -9 -8 -8 -8 -7 -7 -8 -8 -8
Wind_Speed
11 10 9 7 7 6 6 5 5 5 5 5 4 2 2 3 5 5 6 9 11 12 14 15 16 17 17 18 19 19 20 20 21 21 22 22 23 23
9 10 9 7 6 6 6 6 6 6 6 4 4 3 2 3 5 5 6 9 11 13 14 15 15 16 17 17 18 19 20 20 20 21 21 22 22 22
9 10 11 8 7 6 5 5 6 6 8 5 3 2 2 3 3 4 5 6 8 12 14 14 15 16 16 17 18 18 19 19 20 21 21 21 21 22
12 11 11 8 8 6 6 7 6 7 6 7 3 3 4 3 3 3 4 5 7 11 13 14 15 15 16 16 16 17 18 18 19 19 19 20 21 22
12 12 11 10 9 7 7 7 6 6 6 5 4 2 2 1 2 3 3 4 7 9 11 12 13 14 15 16 16 17 17 17 17 18 19 20 20 21
11 11 11 11 11 10 8 8 6 5 5 4 4 3 2 1 1 3 4 3 5 6 8 10 12 13 15 16 16 16 16 17 18 18 19 19 19 20
9 10 10 11 12 10 8 7 7 6 5 4 4 3 3 2 2 2 4 4 5 4 4 5 7 7 10 13 14 15 16 17 17 18 18 18 19 19
10 9 9 10 11 12 11 10 9 7 7 5 4 5 4 4 3 3 3 3 4 2 3 6 4 6 6 8 13 15 16 16 16 17 18 18 18 19
10 9 7 7 9 7 8 8 8 8 8 6 5 6 4 4 3 3 3 4 5 3 3 5 4 6 6 10 15 15 15 16 16 17 17 18 18 19
9 10 9 8 8 9 7 6 5 5 6 5 5 5 5 4 4 4 4 3 4 3 2 4 4 5 7 8 13 13 14 15 16 17 17 17 18 19
7 8 9 9 11 12 9 7 5 4 4 5 4 3 3 3 1 1 0 2 3 3 1 2 4 5 6 5 8 12 14 16 17 17 17 17 18 17
6 7 10 10 12 12 9 8 7 5 4 3 2 1 1 1 1 2 2 2 2 3 2 2 3 3 5 4 4 7 10 13 16 16 17 17 17 10
6 6 6 11 12 12 10 7 7 6 5 4 3 2 1 1 1 1 2 2 3 4 3 1 2 2 3 5 5 5 5 6 9 10 14 16 16 12
7 6 7 11 11 10 8 7 8 6 4 4 3 2 2 2 2 2 2 2 4 5 5 3 3 3 4 5 6 5 5 6 6 7 7 13 14 16
6 9 10 11 9 7 7 8 7 5 4 4 3 3 2 2 2 1 1 2 3 4 5 4 4 4 4 5 6 6 6 6 5 5 6 8 8 8
6 8 10 9 7 6 6 5 3 4 4 4 3 2 1 1 1 1 2 2 2 3 4 5 6 5 5 7 7 8 7 5 6 7 8 8 8 7
7 5 5 5 4 4 4 3 3 3 3 2 2 2 1 1 1 1 1 1 2 3 4 4 5 6 7 7 6 8 7 7 7 7 8 9 9 7
8 6 6 6 6 5 5 4 3 3 3 3 3 3 2 2 2 2 1 2 3 4 4 4 4 4 4 5 9 8 6 6 7 7 7 8 10 8
5 6 6 6 5 5 5 4 4 3 3 3 3 3 3 2 2 2 2 2 3 4 4 3 2 2 4 6 6 6 5 7 7 7 7 7 9 10
4 5 5 5 5 5 5 4 4 3 3 3 3 3 3 3 2 2 2 3 4 4 4 3 3 3 5 5 5 6 9 7 7 8 8 7 8 11
4 4 5 5 5 5 5 4 4 4 4 3 3 3 3 3 3 3 3 5 4 3 4 5 5 8 5 3 5 6 6 10 10 8 7 7 6 5
4 4 4 4 5 5 5 4 4 4 4 3 3 3 3 3 3 4 3 3 3 4 5 5 5 4 1 3 6 7 7 8 11 13 11 8 5 4
4 4 4 4 4 4 4 5 5 4 4 4 4 3 3 3 3 3 3 3 3 4 4 4 4 2 3 4 5 6 8 8 6 7 7 11 13 15
Wind_Direction
211 210 214 214 207 210 207 202 214 252 262 239 235 229 231 247 271 281 284 294 299 301 302 302 302 302 300 298 298 298 298 297 297 296 294 293 292 291
207 207 214 214 209 207 208 210 211 225 251 239 224 223 229 259 275 284 285 295 301 302 303 303 304 305 303 302 301 299 298 298 298 297 295 295 295 294
206 207 215 208 207 206 202 205 212 213 245 259 225 222 222 248 281 284 284 290 299 301 302 302 304 306 306 305 303 302 301 300 298 297 296 296 296 296
209 208 215 205 206 203 202 209 214 211 224 253 246 228 235 246 265 277 290 291 293 297 300 303 306 307 308 309 309 307 305 303 301 300 300 299 298 298
208 208 209 200 207 207 206 211 214 213 215 233 247 238 245 259 278 281 285 285 295 294 297 302 306 308 310 311 311 310 308 304 302 301 300 300 299 298
207 206 204 202 207 205 207 210 205 204 209 227 243 248 252 264 260 274 291 280 289 293 296 304 307 308 309 310 310 309 307 305 303 302 301 301 300 299
203 204 205 203 204 202 202 201 194 199 204 218 234 238 243 251 253 252 276 293 285 273 291 297 298 296 303 306 307 305 305 305 304 304 304 305 305 302
200 202 203 201 205 207 207 199 192 196 204 208 223 233 242 234 238 257 272 302 293 274 286 290 284 285 291 294 299 304 306 307 307 307 307 307 306 303
197 195 196 199 195 193 197 193 196 203 201 198 211 224 229 224 224 247 249 252 261 274 290 281 280 283 290 297 301 302 305 308 309 309 309 308 306 305
196 194 191 191 191 184 177 181 190 202 205 200 204 214 217 213 209 221 241 267 276 275 260 272 284 284 297 295 296 300 307 310 311 310 309 307 307 306
196 192 189 191 191 180 173 178 182 195 196 194 204 207 213 217 205 136 324 310 291 275 251 263 288 300 293 281 291 302 308 311 311 311 309 310 310 309
189 192 193 190 187 181 178 180 190 197 176 168 175 178 157 206 229 190 199 243 278 277 259 272 290 319 308 287 285 300 303 306 311 311 312 313 311 311
186 189 192 187 186 185 184 187 196 177 161 158 160 167 170 195 240 235 211 211 239 256 258 281 281 286 276 298 300 290 288 298 306 305 310 313 312 312
184 181 182 179 179 181 183 181 171 157 147 155 169 193 205 221 240 254 265 253 242 247 255 246 247 257 280 291 291 297 299 294 295 298 304 309 311 309
171 170 169 170 168 169 170 167 159 151 156 173 195 215 214 212 224 260 279 291 290 278 266 253 244 257 255 268 282 290 304 300 292 297 304 306 302 302
148 155 156 156 150 150 152 153 151 160 169 183 193 196 183 192 223 246 267 294 304 299 287 276 265 257 265 266 268 278 282 281 299 305 306 302 296 288
143 136 138 144 149 148 144 147 154 158 167 169 170 179 193 217 249 253 249 263 271 284 296 298 292 279 256 254 268 270 276 283 285 298 307 306 298 288
144 155 163 167 171 172 172 174 176 176 177 174 177 188 202 219 247 259 258 256 273 278 282 292 316 326 317 274 236 255 270 279 292 296 294 299 299 297
149 164 172 176 178 178 179 181 187 182 176 179 186 193 202 215 232 254 268 274 277 279 284 286 291 301 309 308 288 245 263 293 299 298 290 287 290 294
162 169 175 176 176 177 178 176 173 170 175 184 189 193 197 209 227 244 256 261 274 282 289 289 272 269 273 281 285 286 287 284 291 295 297 294 284 285
168 169 169 170 173 175 175 174 174 179 183 186 194 195 197 204 226 241 252 273 276 270 282 284 279 296 283 276 286 289 287 292 292 288 294 299 299 294
163 165 167 170 171 172 172 170 172 178 181 189 194 195 198 205 223 237 245 258 264 263 268 280 295 305 273 267 286 292 298 306 309 304 289 276 286 294
163 161 162 166 168 168 169 171 176 186 188 189 193 195 196 211 223 232 240 248 261 273 284 296 308 298 278 270 282 290 297 307 314 319 308 307 301 291
Height
1471 1472 1473 1474 1475 1476 1476 1476 1476 1472 1469 1470 1470 1470 1469 1468 1466 1465 1463 1461 1459 1456 1454 1451 1448 1446 1443 1441 1438 1436 1433 1431 1429 1427 1425 1424 1422 1421
1464 1465 1466 1467 1468 1469 1469 1469 1469 1468 1464 1463 1464 1463 1462 1461 1460 1458 1456 1454 1452 1450 1447 1444 1441 1438 1436 1433 1430 1428 1426 1423 1421 1419 1417 1416 1414 1413
1456 1458 1459 1460 1461 1462 1462 1462 1462 1462 1459 1457 1457 1457 1456 1455 1453 1452 1450 1447 1445 1443 1440 1437 1434 1432 1429 1426 1423 1420 1418 1416 1413 1412 1410 1408 1406 1405
1449 1450 1452 1453 1454 1454 1455 1455 1455 1455 1454 1451 1451 1450 1449 1448 1447 1445 1443 1440 1438 1436 1433 1430 1428 1424 1421 1419 1416 1413 1410 1408 1406 1404 1403 1401 1399 1397
1441 1442 1444 1445 1446 1447 1447 1448 1448 1448 1447 1446 1444 1444 1443 1442 1440 1438 1436 1434 1432 1429 1427 1424 1421 1418 1415 1412 1409 1406 1404 1401 1399 1397 1395 1394 1392 1390
1433 1435 1436 1437 1438 1440 1440 1441 1441 1441 1441 1440 1438 1437 1436 1435 1433 1431 1429 1427 1425 1423 1420 1418 1415 1412 1409 1405 1402 1400 1397 1395 1393 1391 1389 1387 1385 1383
1425 1427 1429 1430 1431 1432 1433 1434 1434 1434 1434 1433 1432 1431 1430 1428 1427 1425 1422 1420 1418 1416 1413 1411 1408 1405 1402 1399 1396 1393 1391 1389 1386 1384 1382 1380 1378 1376
1418 1420 1422 1423 1424 1425 1426 1427 1428 1428 1427 1427 1426 1425 1423 1423 1421 1419 1416 1413 1410 1410 1406 1404 1402 1399 1396 1393 1390 1387 1385 1383 1380 1378 1376 1374 1371 1370
1411 1413 1414 1415 1417 1418 1419 1420 1420 1421 1421 1421 1420 1419 1418 1417 1415 1413 1411 1408 1406 1403 1400 1396 1395 1392 1390 1387 1384 1382 1380 1377 1375 1372 1370 1368 1365 1363
1404 1406 1407 1409 1410 1411 1412 1413 1413 1414 1414 1414 1414 1413 1412 1411 1410 1408 1406 1403 1401 1399 1396 1391 1388 1386 1384 1381 1379 1377 1374 1372 1369 1366 1364 1362 1359 1357
1397 1399 1401 1402 1404 1405 1406 1407 1407 1407 1408 1408 1407 1407 1406 1405 1404 1403 1400 1398 1394 1392 1391 1387 1383 1380 1377 1375 1374 1371 1369 1366 1363 1361 1358 1356 1353 1351
1390 1392 1394 1395 1397 1398 1399 1400 1400 1401 1401 1401 1401 1401 1400 1399 1398 1397 1395 1393 1390 1387 1385 1383 1379 1376 1371 1369 1368 1366 1364 1361 1358 1356 1353 1350 1348 1345
1383 1385 1387 1389 1390 1392 1393 1394 1395 1395 1395 1395 1395 1395 1395 1394 1393 1391 1390 1389 1386 1384 1382 1380 1376 1373 1371 1366 1362 1361 1359 1356 1353 1351 1348 1345 1343 1340
1376 1378 1381 1383 1384 1386 1387 1388 1389 1389 1390 1390 1390 1389 1389 1388 1387 1386 1385 1384 1382 1380 1378 1376 1373 1371 1367 1363 1359 1356 1354 1352 1349 1346 1343 1340 1338 1335
1371 1373 1375 1377 1378 1380 1381 1382 1383 1383 1384 1384 1384 1384 1384 1383 1382 1381 1380 1379 1378 1376 1374 1372 1370 1367 1364 1361 1356 1352 1349 1346 1345 1342 1338 1335 1333 1330
1365 1367 1369 1371 1373 1374 1376 1377 1377 1378 1379 1379 1379 1379 1379 1378 1378 1377 1375 1374 1372 1371 1370 1368 1365 1363 1360 1357 1354 1349 1347 1343 1340 1337 1334 1331 1329 1326
1359 1361 1363 1365 1367 1369 1370 1371 1372 1373 1374 1374 1375 1374 1374 1374 1373 1372 1371 1369 1368 1366 1364 1363 1361 1359 1356 1353 1349 1346 1343 1340 1337 1334 1330 1326 1324 1322
1354 1355 1357 1359 1361 1363 1365 1366 1368 1369 1369 1370 1370 1370 1370 1369 1369 1368 1367 1365 1364 1362 1361 1358 1356 1353 1351 1348 1346 1342 1339 1336 1333 1330 1327 1322 1319 1317
1349 1350 1352 1355 1357 1359 1360 1362 1363 1364 1365 1365 1366 1366 1366 1365 1365 1364 1363 1362 1360 1359 1357 1356 1353 1350 1347 1344 1341 1340 1336 1332 1329 1326 1323 1320 1315 1313
1344 1346 1348 1350 1352 1354 1356 1357 1359 1360 1361 1361 1361 1362 1362 1361 1361 1360 1359 1358 1357 1355 1354 1352 1351 1348 1346 1343 1339 1336 1334 1330 1326 1322 1319 1316 1312 1310
1340 1342 1344 1347 1348 1350 1352 1353 1355 1356 1357 1357 1357 1358 1358 1357 1357 1356 1356 1355 1354 1352 1350 1349 1348 1347 1344 1341 1337 1333 1331 1328 1324 1320 1316 1312 1308 1304
1336 1339 1341 1343 1345 1346 1348 1349 1350 1351 1352 1353 1353 1353 1354 1353 1353 1352 1352 1351 1350 1349 1348 1347 1345 1344 1341 1338 1334 1331 1327 1325 1322 1319 1315 1311 1308 1303
1333 1335 1337 1339 1341 1343 1344 1345 1346 1347 1348 1349 1349 1349 1349 1349 1349 1349 1349 1348 1348 1347 1345 1344 1342 1341 1338 1336 1333 1329 1325 1322 1318 1315 1313 1310 1307 1304